Hourly Data Report for October 07, 2013

All times are specified in Local Standard Time (LST). Add 1 hour to adjust for Daylight Saving Time where and when it is observed.

KITCHENER/WATERLOO
ONTARIO

43°27'39.000" N
80°22'43.000" W
321.60 m
6144239
71368
YKF

Related Data

No related data is available for this station

Download Data

Hourly Data (October 2013)
Hourly Data Report for October 7, 2013
Temp Definition
°C
Dew Point Temp Definition
°C
Rel Hum Definition
%
Wind Dir Definition
10's deg

Wind Spd Definition
km/h
Visibility Definition
km
Stn Press Definition
kPa
Hmdx Definition


Wind Chill Definition


Weather Definition


TIME
00:00 Legend Double Dagger 17.7 16.9 95 23 21 14.5 96.67     LegendNANA
01:00 Legend Double Dagger 14.3 13.2 93 23 15 9.7 96.73     LegendNANA
02:00 Legend Double Dagger 13.7 12.8 94 23 17 9.7 96.68     LegendNANA
03:00 Legend Double Dagger 13.1 12.5 96 19 13 8.1 96.68     LegendNANA
04:00 Legend Double Dagger 12.0 10.9 93 26 18 16.1 96.76     LegendNANA
05:00 Legend Double Dagger 10.9 10.0 94 22 9 16.1 96.71     LegendNANA
06:00 Legend Double Dagger 10.9 10.0 94 20 13 16.1 96.73     LegendNANA
07:00 Legend Double Dagger 10.8 9.9 94 21 9 16.1 96.72     LegendNANA
08:00 Legend Double Dagger 10.8 9.7 93 20 15 16.1 96.72     LegendNANA
09:00 Legend Double Dagger 12.0 10.6 91 21 18 16.1 96.74     LegendNANA
10:00 Legend Double Dagger 12.1 9.7 85 23 21 16.1 96.76     LegendNANA
11:00 Legend Double Dagger 12.5 8.7 77 23 28 16.1 96.80     LegendNANA
12:00 Legend Double Dagger 12.8 6.0 63 24 37 16.1 96.82     LegendNANA
13:00 Legend Double Dagger 11.8 4.6 61 25 41 16.1 96.84     LegendNANA
14:00 Legend Double Dagger 12.5 5.7 63 25 41 16.1 96.89     LegendNANA
15:00 Legend Double Dagger 13.1 5.9 62 24 39 16.1 96.97     LegendNANA
16:00 Legend Double Dagger 12.5 6.6 67 25 30 16.1 97.07     LegendNANA
17:00 Legend Double Dagger 10.6 8.9 89 28 26 16.1 97.26     LegendNANA
18:00 Legend Double Dagger 10.2 7.8 85 29 13 16.1 97.40     LegendNANA
19:00 Legend Double Dagger 8.7 6.3 85 28 9 16.1 97.54     LegendNANA
20:00 Legend Double Dagger 9.3 7.9 91 25 5 12.9 97.67     LegendNANA
21:00 Legend Double Dagger 8.4 7.1 91 24 4 16.1 97.79     LegendNANA
22:00 Legend Double Dagger 8.9 7.7 92 24 8 16.1 97.93     LegendNANA
23:00 Legend Double Dagger 8.2 7.2 94 23 11 16.1 98.00     LegendNANA

Notes on Data Quality.

Legend

  • E = Estimated
  • M = Missing
  • NA = Not Available
  • ‡ = Partner data that is not subject to review by the National Climate Archives
Date modified: